KA4JMC Weather Reports


Display with metric or nautical units.
time (UTC)temp
F
wind
direction
speed
MPH
gust
MPH
rain 1hr
in
rain 24hr
in
rain mn
in
humidity
%
barometer
mb
20260901052025 74 197 0.0 0.0 0.00 0.00 0.00 1014.2
20260901051522 74 197 0.0 0.0 0.00 0.00 0.00 1014.2
20260901051023 74 197 0.0 0.0 0.00 0.00 0.00 1014.2
20260901050528 74 197 0.0 0.0 0.00 0.00 0.00 1014.2
20260901050033 74 196 0.0 0.0 0.00 0.00 0.00 1014.2
20260901045527 74 196 0.0 2.0 0.00 0.00 0.00 1014.2
20260901045022 74 188 0.0 0.0 0.00 0.00 0.00 1014.2
20260901044545 73 204 0.0 0.0 0.00 0.00 0.00 1014.2
20260901044025 73 204 0.0 0.0 0.00 0.00 0.00 1014.2
20260901043523 73 205 0.0 0.0 0.00 0.00 0.00 1014.2
20260901043023 73 210 0.0 0.0 0.00 0.00 0.00 1014.2
20260901042522 73 210 0.0 0.0 0.00 0.00 0.00 1014.2
20260901042021 73 210 0.0 0.0 0.00 0.00 0.00 1014.2
20260901041544 73 210 0.0 0.0 0.00 0.00 0.00 1014.2
20260901041043 74 210 0.0 0.0 0.00 0.00 0.00 1014.2
20260901040522 74 210 0.0 0.0 0.00 0.00 0.00 1014.2
20260901040023 74 210 0.0 0.0 0.00 0.00 0.00 1014.2
20260901035523 74 210 0.0 0.0 0.00 0.00 0.00 1014.2
20260901035023 74 210 0.0 0.0 0.00 0.00 0.00 1014.2
20260901034523 74 210 0.0 0.0 0.00 0.00 0.00 1014.2
20260901034022 74 210 0.0 0.0 0.00 0.00 0.00 1014.2
20260901033522 74 210 0.0 0.0 0.00 0.00 0.00 1014.2
20260901033022 74 210 0.0 0.0 0.00 0.00 0.00 1014.2
20260901032522 74 210 0.0 0.0 0.00 0.00 0.00 1014.2
20260901032022 75 210 0.0 0.0 0.00 0.00 0.00 1014.2
20260901031522 75 210 0.0 0.0 0.00 0.00 0.00 1014.2
20260901031022 75 210 0.0 0.0 0.00 0.00 0.00 1014.2
20260901030521 75 210 0.0 0.0 0.00 0.00 0.00 1014.2
20260901030024 75 210 0.0 0.0 0.00 0.00 0.00 1014.2
20260901025522 75 221 0.0 0.0 0.00 0.00 0.00 1014.2
20260901025022 75 226 0.0 0.0 0.00 0.00 0.00 1014.2
20260901024522 75 226 0.0 0.0 0.00 0.00 0.00 1014.2
20260901024022 76 226 0.0 0.0 0.00 0.00 0.00 1014.2
20260901023527 76 226 0.0 0.0 0.00 0.00 0.00 1014.2
20260901023033 76 226 0.0 0.0 0.00 0.00 0.00 1014.2
20260901022546 76 237 0.0 0.0 0.00 0.00 0.00 1014.2
20260901022029 76 244 0.0 0.0 0.00 0.00 0.00 1014.2
20260901021523 76 261 0.0 0.0 0.00 0.00 0.00 1014.2
20260901021029 76 261 0.0 0.0 0.00 0.00 0.00 1014.2
20260901020524 76 261 0.0 0.0 0.00 0.00 0.00 1014.2
20260901020029 76 195 0.0 0.0 0.00 0.00 0.00 1014.2
20260901015526 76 197 0.0 3.0 0.00 0.00 0.00 1014.2
20260901015025 76 189 0.0 0.0 0.00 0.00 0.00 1014.2
20260901014528 76 189 0.0 0.0 0.00 0.00 0.00 1014.2
20260901014023 76 189 0.0 0.0 0.00 0.00 0.00 1014.2
20260901013522 76 189 0.0 0.0 0.00 0.00 0.00 1014.2
20260901013023 76 189 0.0 0.0 0.00 0.00 0.00 1014.2
20260901012527 76 189 0.0 0.0 0.00 0.00 0.00 1014.2
20260901012024 76 189 0.0 0.0 0.00 0.00 0.00 1014.2
20260901011525 76 189 0.0 0.0 0.00 0.00 0.00 1014.2
20260901011031 77 189 0.0 0.0 0.00 0.00 0.00 1014.2
20260901010523 77 189 0.0 0.0 0.00 0.00 0.00 1014.2
20260901010023 77 189 0.0 0.0 0.00 0.00 0.00 1014.2
20260901005526 77 189 0.0 0.0 0.00 0.00 0.00 1014.2
20260901005022 77 189 0.0 0.0 0.00 0.00 0.00 1013.2
20260901004522 77 188 0.0 4.0 0.00 0.00 0.00 1013.2
20260901004022 77 197 0.0 0.0 0.00 0.00 0.00 1013.2
20260901003522 77 197 0.0 0.0 0.00 0.00 0.00 1013.2
20260901003044 77 200 0.0 0.0 0.00 0.00 0.00 1013.2
20260901002522 77 201 0.0 0.0 0.00 0.00 0.00 1013.2
20260901002023 78 201 0.0 0.0 0.00 0.00 0.00 1013.2
20260901001522 78 203 0.0 0.0 0.00 0.00 0.00 1013.2
20260901001022 78 203 0.0 0.0 0.00 0.00 0.00 1013.2
20260901000522 78 203 0.0 0.0 0.00 0.00 0.00 1013.2
20260901000023 78 203 0.0 0.0 0.00 0.00 0.00 1013.2
20260831235522 78 203 0.0 0.0 0.00 0.00 0.00 1013.2
20260831235023 78 203 0.0 0.0 0.00 0.00 0.00 1012.2
20260831234544 78 203 0.0 0.0 0.00 0.00 0.00 1012.2
20260831234023 78 203 0.0 0.0 0.00 0.00 0.00 1012.2
20260831233521 78 203 0.0 0.0 0.00 0.00 0.00 1013.2
20260831233023 78 203 0.0 0.0 0.00 0.00 0.00 1013.2
20260831232522 79 203 0.0 0.0 0.00 0.00 0.00 1013.2
20260831232022 79 204 2.0 0.0 0.00 0.00 0.00 1013.2
20260831231522 79 183 0.0 0.0 0.00 0.00 0.00 1013.2
20260831231043 79 261 0.0 0.0 0.00 0.00 0.00 1013.2
20260831230523 79 191 2.0 0.0 0.00 0.00 0.00 1013.2
20260831230033 79 222 0.0 0.0 0.00 0.00 0.00 1013.2
20260831225522 79 212 3.0 3.0 0.00 0.00 0.00 1013.2
20260831225031 79 209 3.0 0.0 0.00 0.00 0.00 1013.2
20260831224523 79 240 2.0 0.0 0.00 0.00 0.00 1013.2
20260831224023 79 214 0.0 0.0 0.00 0.00 0.00 1013.2
20260831223527 79 206 0.0 2.0 0.00 0.00 0.00 1013.2
20260831223027 79 198 3.0 3.0 0.00 0.00 0.00 1013.2
20260831222522 79 210 3.0 3.0 0.00 0.00 0.00 1013.2
20260831222025 79 186 5.0 5.0 0.00 0.00 0.00 1013.2
20260831221544 79 230 0.0 6.0 0.00 0.00 0.00 1013.2
20260831221023 79 217 0.0 3.0 0.00 0.00 0.00 1013.2
20260831220527 79 180 0.0 0.0 0.00 0.00 0.00 1013.2
20260831220035 78 192 3.0 0.0 0.00 0.00 0.00 1013.2
20260831215523 78 219 0.0 0.0 0.00 0.00 0.00 1013.2
20260831215025 78 206 2.0 0.0 0.00 0.00 0.00 1013.2
20260831214522 77 190 0.0 0.0 0.00 0.00 0.00 1013.2
20260831214031 77 186 3.0 5.0 0.00 0.00 0.00 1013.2
20260831213521 77 190 0.0 0.0 0.00 0.00 0.00 1013.2
20260831213029 76 190 0.0 4.0 0.00 0.00 0.00 1013.2
20260831212522 76 200 3.0 0.0 0.00 0.00 0.00 1013.2
20260831212027 76 194 0.0 0.0 0.00 0.00 0.00 1013.2
20260831211523 76 207 0.0 4.0 0.00 0.00 0.00 1013.2
20260831211022 76 190 0.0 0.0 0.00 0.00 0.00 1013.2
20260831210522 76 222 2.0 3.0 0.00 0.00 0.00 1012.2
20260831210043 76 211 0.0 0.0 0.00 0.00 0.00 1012.2
20260831205522 76 202 3.0 2.0 0.00 0.00 0.00 1012.2
20260831205021 76 173 0.0 4.0 0.00 0.00 0.00 1012.2
20260831204522 76 195 0.0 0.0 0.00 0.00 0.00 1012.2
20260831204023 75 214 0.0 0.0 0.00 0.00 0.00 1012.2
20260831203522 74 198 0.0 0.0 0.00 0.00 0.00 1013.2
20260831203023 75 185 4.0 5.0 0.00 0.00 0.00 1013.2
20260831202522 75 171 3.0 4.0 0.00 0.00 0.00 1013.2
20260831202022 75 224 5.0 4.0 0.00 0.00 0.00 1014.2
20260831201522 76 240 0.0 0.0 0.00 0.00 0.00 1014.2
20260831201043 76 232 0.0 3.0 0.00 0.00 0.00 1014.2
20260831200522 76 243 0.0 0.0 0.00 0.00 0.00 1014.2
20260831200025 77 230 0.0 2.0 0.00 0.00 0.00 1014.2
20260831195522 77 218 0.0 0.0 0.00 0.00 0.00 1014.2
20260831195022 77 210 0.0 0.0 0.00 0.00 0.00 1013.2
20260831194523 77 208 0.0 0.0 0.00 0.00 0.00 1013.2
20260831194023 77 225 0.0 3.0 0.00 0.00 0.00 1013.2
20260831193523 78 213 0.0 2.0 0.00 0.00 0.00 1013.2
20260831193031 78 197 3.0 0.0 0.00 0.00 0.00 1013.2
20260831192546 79 195 3.0 2.0 0.00 0.00 0.00 1013.2
20260831192023 79 184 4.0 3.0 0.00 0.00 0.00 1013.2
20260831191523 79 192 3.0 5.0 0.00 0.00 0.00 1013.2
20260831191024 79 208 4.0 5.0 0.00 0.00 0.00 1013.2
20260831190528 79 217 0.0 0.0 0.00 0.00 0.00 1013.2
20260831190022 79 218 3.0 0.0 0.00 0.00 0.00 1013.2
20260831185550 79 189 0.0 0.0 0.00 0.00 0.00 1013.2
20260831185025 80 242 3.0 3.0 0.00 0.00 0.00 1013.2
20260831184522 80 207 3.0 3.0 0.00 0.00 0.00 1013.2
20260831184044 81 250 5.0 5.0 0.00 0.00 0.00 1013.2
20260831183523 82 200 3.0 0.0 0.00 0.00 0.00 1013.2
20260831183023 82 199 3.0 4.0 0.00 0.00 0.00 1013.2
20260831182523 83 191 4.0 8.0 0.00 0.00 0.00 1013.2
20260831182021 83 216 0.0 0.0 0.00 0.00 0.00 1013.2
20260831181522 84 200 4.0 4.0 0.00 0.00 0.00 1013.2
20260831181022 84 199 4.0 8.0 0.00 0.00 0.00 1013.2
20260831180523 84 230 3.0 5.0 0.00 0.00 0.00 1013.2
20260831180056 84 235 3.0 5.0 0.00 0.00 0.00 1013.2
20260831175522 84 185 5.0 5.0 0.00 0.00 0.00 1013.2
20260831175023 84 161 5.0 8.0 0.00 0.00 0.00 1013.2
20260831174524 83 212 3.0 3.0 0.00 0.00 0.00 1013.2
20260831174022 83 196 4.0 4.0 0.00 0.00 0.00 1013.2
20260831173522 82 227 6.0 9.0 0.00 0.00 0.00 1014.2
20260831173024 82 198 3.0 6.0 0.00 0.00 0.00 1014.2
20260831172522 82 206 4.0 5.0 0.00 0.00 0.00 1014.2
20260831172022 81 206 4.0 5.0 0.00 0.00 0.00 1014.2
20260831171522 81 213 4.0 4.0 0.00 0.00 0.00 1014.2
20260831171022 81 201 4.0 3.0 0.00 0.00 0.00 1014.2
20260831170522 81 204 4.0 5.0 0.00 0.00 0.00 1014.2
20260831170023 81 203 4.0 4.0 0.00 0.00 0.00 1014.2
20260831165522 81 185 3.0 3.0 0.00 0.00 0.00 1014.2
20260831165023 81 209 4.0 3.0 0.00 0.00 0.00 1014.2
20260831164523 80 204 4.0 5.0 0.00 0.00 0.00 1014.2
20260831164022 79 176 4.0 5.0 0.00 0.00 0.00 1014.2
20260831163522 78 227 3.0 4.0 0.00 0.00 0.00 1014.2
20260831163024 77 219 3.0 4.0 0.00 0.00 0.00 1014.2
20260831162522 77 186 0.0 0.0 0.00 0.00 0.00 1014.2
20260831162022 77 215 3.0 6.0 0.00 0.00 0.00 1014.2
20260831161522 77 203 0.0 4.0 0.00 0.00 0.00 1014.2
20260831161022 77 213 0.0 4.0 0.00 0.00 0.00 1014.2
20260831160523 77 175 3.0 2.0 0.00 0.00 0.00 1014.2
20260831160023 76 204 2.0 0.0 0.00 0.00 0.00 1014.2
20260831155522 75 133 2.0 4.0 0.00 0.00 0.00 1014.2
20260831155031 74 211 0.0 0.0 0.00 0.00 0.00 1014.2
20260831154523 73 188 2.0 3.0 0.00 0.00 0.00 1014.2
20260831154029 74 211 0.0 3.0 0.00 0.00 0.00 1014.2
20260831153533 74 214 3.0 0.0 0.00 0.00 0.00 1014.2
20260831153041 73 164 2.0 0.0 0.00 0.00 0.00 1014.2
20260831152526 72 140 2.0 3.0 0.00 0.00 0.00 1014.2
20260831152023 72 200 0.0 3.0 0.00 0.00 0.00 1014.2
20260831151523 72 190 2.0 3.0 0.00 0.00 0.00 1014.2
20260831151022 72 179 0.0 4.0 0.00 0.00 0.00 1014.2
20260831150543 72 192 0.0 0.0 0.00 0.00 0.00 1014.2
20260831150054 72 189 0.0 3.0 0.00 0.00 0.00 1014.2
20260831145548 71 192 0.0 0.0 0.00 0.00 0.00 1014.2
20260831145022 71 180 2.0 0.0 0.00 0.00 0.00 1014.2
20260831144523 71 175 0.0 0.0 0.00 0.00 0.00 1014.2
20260831144022 71 140 0.0 0.0 0.00 0.00 0.00 1014.2
20260831143522 70 192 0.0 0.0 0.00 0.00 0.00 1014.2
20260831143050 70 178 0.0 0.0 0.00 0.00 0.00 1014.2
20260831142550 70 182 0.0 0.0 0.00 0.00 0.00 1014.2
20260831142027 70 177 0.0 0.0 0.00 0.00 0.00 1014.2
20260831141544 70 181 0.0 0.0 0.00 0.00 0.00 1014.2
20260831141025 70 173 0.0 0.0 0.00 0.00 0.00 1014.2
20260831140522 70 187 0.0 0.0 0.00 0.00 0.00 1014.2
20260831140023 70 164 0.0 0.0 0.00 0.00 0.00 1014.2
20260831135522 70 104 0.0 0.0 0.00 0.00 0.00 1014.2
20260831135023 70 125 0.0 0.0 0.00 0.00 0.00 1014.2
20260831134523 69 206 0.0 0.0 0.00 0.00 0.00 1014.2
20260831134022 69 198 0.0 0.0 0.00 0.00 0.00 1014.2
20260831133523 69 225 0.0 3.0 0.00 0.00 0.00 1014.2
20260831133023 69 214 0.0 0.0 0.00 0.00 0.00 1014.2
20260831132522 69 205 0.0 0.0 0.00 0.00 0.00 1014.2
20260831132022 69 191 0.0 0.0 0.00 0.00 0.00 1015.2
20260831131523 69 203 0.0 0.0 0.00 0.00 0.00 1015.2
20260831131022 69 203 0.0 0.0 0.00 0.00 0.00 1015.2
20260831130522 69 203 0.0 0.0 0.00 0.00 0.00 1015.2
20260831130023 69 203 0.0 0.0 0.00 0.00 0.00 1015.2
20260831125521 69 203 0.0 0.0 0.00 0.00 0.00 1015.2
20260831125022 68 203 0.0 0.0 0.00 0.00 0.00 1014.2
20260831124523 68 203 0.0 0.0 0.00 0.00 0.00 1014.2
20260831124022 68 203 0.0 0.0 0.00 0.00 0.00 1014.2
20260831123522 68 203 0.0 0.0 0.00 0.00 0.00 1014.2
20260831123023 68 203 0.0 0.0 0.00 0.00 0.00 1014.2
20260831122522 68 203 0.0 0.0 0.00 0.00 0.00 1014.2
20260831122030 68 203 0.0 0.0 0.00 0.00 0.00 1014.2
20260831121523 68 203 0.0 0.0 0.00 0.00 0.00 1014.2
20260831121027 68 203 0.0 0.0 0.00 0.00 0.00 1014.2
20260831120550 68 203 0.0 0.0 0.00 0.00 0.00 1014.2
20260831120023 68 203 0.0 0.0 0.00 0.00 0.00 1014.2
20260831115554 68 203 0.0 0.0 0.00 0.00 0.00 1014.2
20260831115046 68 203 0.0 0.0 0.00 0.00 0.00 1015.2
20260831114530 68 203 0.0 0.0 0.00 0.00 0.00 1015.2
20260831114023 68 203 0.0 0.0 0.00 0.00 0.00 1015.2
20260831113526 68 203 0.0 0.0 0.00 0.00 0.00 1015.2
20260831113044 69 203 0.0 0.0 0.00 0.00 0.00 1015.2
20260831112522 69 203 0.0 0.0 0.00 0.00 0.00 1015.2
20260831112022 69 203 0.0 0.0 0.00 0.00 0.00 1015.2
20260831111525 70 203 0.0 0.0 0.00 0.00 0.00 1015.2
20260831111022 70 207 0.0 0.0 0.00 0.00 0.00 1015.2
20260831110522 70 37 0.0 0.0 0.00 0.00 0.00 1014.2
20260831110050 71 229 0.0 0.0 0.00 0.00 0.00 1014.2
20260831105522 71 357 0.0 0.0 0.00 0.00 0.00 1014.2
20260831105048 71 340 0.0 0.0 0.00 0.00 0.00 1014.2
20260831104529 71 322 0.0 0.0 0.00 0.00 0.00 1014.2
20260831104025 71 178 0.0 0.0 0.00 0.00 0.00 1014.2
20260831103522 71 210 0.0 0.0 0.00 0.00 0.00 1013.2
20260831103022 71 209 0.0 4.0 0.00 0.00 0.00 1013.2
20260831102522 71 187 0.0 0.0 0.00 0.00 0.00 1013.2
20260831102022 71 203 0.0 0.0 0.00 0.00 0.00 1013.2
20260831101523 71 200 2.0 3.0 0.00 0.00 0.00 1013.2
20260831101044 71 196 0.0 0.0 0.00 0.00 0.00 1013.2
20260831100523 71 217 0.0 3.0 0.00 0.00 0.00 1013.2
20260831100031 71 175 0.0 0.0 0.00 0.00 0.00 1013.2
20260831095521 71 178 2.0 4.0 0.00 0.00 0.00 1013.2
20260831095023 71 187 0.0 0.0 0.00 0.00 0.00 1013.2
20260831094543 71 181 0.0 0.0 0.00 0.00 0.00 1013.2
20260831094022 71 226 0.0 3.0 0.00 0.00 0.00 1013.2
20260831093522 71 190 0.0 0.0 0.00 0.00 0.00 1013.2
20260831093024 71 181 0.0 0.0 0.00 0.00 0.00 1013.2
20260831092523 71 194 0.0 0.0 0.00 0.00 0.00 1013.2
20260831092023 71 171 0.0 0.0 0.00 0.00 0.00 1013.2
20260831091522 71 170 0.0 4.0 0.00 0.00 0.00 1013.2
20260831091023 71 177 0.0 0.0 0.00 0.00 0.00 1013.2
20260831090522 71 190 0.0 0.0 0.00 0.00 0.00 1014.2
20260831090022 71 182 0.0 0.0 0.00 0.00 0.00 1014.2
20260831085522 71 182 0.0 0.0 0.00 0.00 0.00 1014.2
20260831085023 71 182 0.0 0.0 0.00 0.00 0.00 1013.2
20260831084523 71 182 0.0 0.0 0.00 0.00 0.00 1013.2
20260831084029 71 182 0.0 0.0 0.00 0.00 0.00 1013.2
20260831083535 71 182 0.0 0.0 0.00 0.00 0.00 1014.2
20260831083027 71 182 0.0 0.0 0.00 0.00 0.00 1014.2
20260831082522 71 182 0.0 0.0 0.00 0.00 0.00 1014.2
20260831082022 71 182 0.0 0.0 0.00 0.00 0.00 1014.2
20260831081523 71 182 0.0 0.0 0.00 0.00 0.00 1014.2
20260831081023 71 182 0.0 0.0 0.00 0.00 0.00 1014.2
20260831080522 71 182 0.0 0.0 0.00 0.00 0.00 1014.2
20260831080041 71 182 0.0 0.0 0.00 0.00 0.00 1014.2
20260831075522 71 182 0.0 0.0 0.00 0.00 0.00 1014.2
20260831075030 71 182 0.0 0.0 0.00 0.00 0.00 1014.2
20260831074525 71 182 0.0 0.0 0.00 0.00 0.00 1014.2
20260831074022 71 182 0.0 0.0 0.00 0.00 0.00 1014.2
20260831073523 71 182 0.0 0.0 0.00 0.00 0.00 1014.2
20260831073029 71 182 0.0 0.0 0.00 0.00 0.00 1014.2
20260831072523 71 182 0.0 0.0 0.00 0.00 0.00 1014.2
20260831072027 71 182 0.0 0.0 0.00 0.00 0.00 1014.2
20260831071543 72 182 0.0 0.0 0.00 0.00 0.00 1014.2
20260831071025 72 182 0.0 0.0 0.00 0.00 0.00 1014.2
20260831070530 72 182 0.0 0.0 0.00 0.00 0.00 1014.2
20260831070022 72 182 0.0 0.0 0.00 0.00 0.00 1014.2
20260831065522 72 182 0.0 0.0 0.00 0.00 0.00 1014.2
20260831065021 72 182 0.0 0.0 0.00 0.00 0.00 1014.2
20260831064521 72 182 0.0 0.0 0.00 0.00 0.00 1014.2
20260831064023 72 182 0.0 0.0 0.00 0.00 0.00 1014.2
20260831063522 72 182 0.0 0.0 0.00 0.00 0.00 1014.2
20260831063024 72 182 0.0 0.0 0.00 0.00 0.00 1014.2
20260831062522 72 182 0.0 0.0 0.00 0.00 0.00 1014.2
20260831062043 72 182 0.0 0.0 0.00 0.00 0.00 1014.2
20260831061522 72 182 0.0 0.0 0.00 0.00 0.00 1014.2
20260831061022 72 182 0.0 0.0 0.00 0.00 0.00 1014.2
20260831060521 72 182 0.0 0.0 0.00 0.00 0.00 1014.2
20260831060043 72 182 0.0 0.0 0.00 0.00 0.00 1014.2
20260831055543 72 182 0.0 0.0 0.00 0.00 0.00 1014.2
20260831055022 72 182 0.0 0.0 0.00 0.00 0.00 1014.2
20260831054522 72 182 0.0 0.0 0.00 0.00 0.00 1014.2
20260831054021 72 182 0.0 0.0 0.00 0.00 0.00 1014.2
20260831053543 72 182 0.0 0.0 0.00 0.00 0.00 1014.2
20260831053023 72 182 0.0 0.0 0.00 0.00 0.00 1014.2
20260831052522 72 182 0.0 0.0 0.00 0.00 0.00 1014.2